Location: Cabri�res
(43.7840°N, 5.4986°E)
Time: 15:37:39
(UTC+00:00)

USA 234 - Pass Details

Date: 09 April 2020
Orbit: 1102 x 1106 km, 123.0° (Epoch: 14 May)

Event Time Altitude Azimuth Distance (km) Brightness Sun altitude
Rises 19:52:20 0° 54° (NE) 3,925 5.9 -17.2°
Reaches altitude 10° 19:55:02 10° 62° (ENE) 2,964 5.2 -17.6°
Maximum altitude 20:01:04 38° 129° (SE) 1,611 3.6 -18.6°
Drops below altitude 10° 20:07:04 10° 196° (SSW) 2,953 5.3 -19.5°
Sets 20:09:44 0° 204° (SSW) 3,908 6.1 -19.9°
